Location: Casa Petromilli
(43.5000°N, 13.5833°E)
Time: 01:10:46
(UTC+00:00)

Daily predictions for brighter satellites

Satellite Brightness Start Highest point End
(mag) Time Altitude Azimuth Time Altitude Azimuth Time Altitude Azimuth
Cosmos 773 Rocket 4.3 00:01:15 10° NNW 00:06:13 58° ENE 00:06:13 58° ENE
Cosmos 1464 Rocket 4.2 00:08:47 58° W 00:08:59 58° W 00:15:09 10° N
Cosmos 2219 Rocket 2.7 00:06:46 10° NNW 00:11:13 48° WNW 00:11:13 48° WNW
Lacrosse 4 Rocket 3.2 00:13:01 27° NW 00:13:01 27° NW 00:16:05 10° N
Cosmos 1354 Rocket 4.5 00:16:38 53° NW 00:16:38 53° NW 00:21:37 10° NNE
SL-4 R/B 4.0 00:22:19 22° NNE 00:22:19 22° NNE 00:24:34 10° ENE
SL-16 R/B 4.1 00:19:00 10° N 00:23:47 27° NE 00:28:31 10° ESE
SL-16 R/B 2.7 00:28:37 47° SE 00:30:23 68° ENE 00:36:37 10° N
COSMOS 2428 3.5 00:24:57 10° NW 00:29:12 40° WNW 00:29:12 40° WNW
BREEZE-M TANK 3.6 00:36:08 36° ENE 00:36:08 36° ENE 00:39:08 10° E
Nadezhda 4 Rocket 4.2 00:29:03 10° NNW 00:35:10 54° W 00:35:18 54° W
Cosmos 2034 Rocket 4.3 00:35:41 49° W 00:36:10 50° WNW 00:42:17 10° N
NPP 4.0 00:31:07 10° NNE 00:36:23 52° E 00:36:53 50° ESE
CZ-2D R/B 2.3 00:32:10 10° NNE 00:37:38 64° ESE 00:38:05 61° SE
Okean 2 Rocket 4.0 00:41:46 40° NW 00:41:46 40° NW 00:45:12 10° N
GEOS 3 Rocket 4.0 00:36:41 10° NNE 00:41:58 56° NW 00:42:46 51° W
Cosmos 1428 Rocket 4.5 00:38:17 10° N 00:44:35 80° E 00:46:04 55° SSE
AQUA 4.4 00:40:47 10° NNE 00:45:24 48° E 00:45:33 48° ESE
Cosmos 2297 Rocket 2.0 00:45:36 74° SSE 00:46:00 79° ESE 00:51:40 10° NNE
ADEOS II 3.4 00:41:27 10° NE 00:46:04 30° E 00:47:27 27° ESE
Cosmos 2219 3.0 00:45:50 79° SSW 00:46:12 89° WNW 00:51:51 10° NNE
Cosmos 1092 Rocket 3.9 00:41:08 10° NNW 00:47:21 70° W 00:48:01 65° SW
Uosat 12 SS-18 rocket 4.3 00:48:34 82° ENE 00:48:34 82° ENE 00:52:59 10° NE
Cosmos 1777 Rocket 4.0 00:49:00 71° W 00:49:07 72° WNW 00:54:26 10° NNE
Cosmos 1980 3.5 00:43:54 10° NNW 00:49:35 77° WSW 00:49:51 75° SW
Helios 1B rocket 4.3 00:46:26 10° NNW 00:48:49 21° NW 00:48:49 21° NW
Cosmos 2333 Rocket 3.7 00:45:15 10° NW 00:48:11 22° WNW 00:48:11 22° WNW
IRS-1D 4.4 00:45:44 10° NNE 00:50:27 38° E 00:51:26 35° SE
Cosmos 1766 4.3 00:51:10 42° ENE 00:51:10 42° ENE 00:54:21 10° NNE
UNK 3.7 00:52:22 81° NNW 00:52:22 81° NNW 00:56:50 10° NNW
Cosmos 2237 Rocket 2.0 00:54:00 10° NNW 00:59:38 69° WSW 00:59:51 68° SW
Okean 1 Rocket 3.1 01:01:02 75° N 01:01:02 75° N 01:05:02 10° N
Cosmos 1626 3.4 01:00:45 10° N 01:04:12 36° ENE 01:04:26 35° E
CZ-4B R/B 3.6 00:59:38 10° NNE 01:04:20 57° ESE 01:04:55 53° SE
ATLAS 3B CENTAUR R/B 4.2 01:13:44 33° S 01:13:55 33° S 01:20:46 10° SE
Cosmos 1805 3.7 01:24:26 49° NW 01:24:26 49° NW 01:27:44 10° N
Meteor 1-15 Rocket 4.4 01:22:53 47° WSW 01:23:54 54° WNW 01:29:24 10° N
SJ 16-02 1.3 01:25:10 68° SSE 01:25:37 77° ESE 01:30:03 10° NNE
SL-14 R/B 3.4 01:23:59 10° N 01:27:55 66° E 01:28:24 59° ESE
DNEPR-1 R/B 3.8 01:23:13 10° NW 01:28:56 82° WSW 01:31:05 34° SSE
ERBS 3.1 01:25:51 10° NW 01:29:04 50° NE 01:32:16 10° ESE
IRS-P3 4.4 01:29:04 10° NNE 01:34:24 64° ESE 01:36:40 34° S
Cosmos 2227 Rocket 2.6 01:33:34 40° WSW 01:35:08 52° WNW 01:40:41 10° NNE
Cosmos 1455 Rocket 3.4 01:34:24 42° SSE 01:35:39 61° E 01:40:03 10° NNE
Resurs 1-4 Rocket 2.8 01:33:25 10° N 01:38:16 38° WNW 01:39:24 34° W
Cosmos 2180 Rocket 4.4 01:36:43 40° SSW 01:39:02 75° W 01:45:12 10° N
Cosmos 1758 4.3 01:37:39 30° SE 01:39:04 42° E 01:42:54 10° NNE
Cosmos 1674 4.4 01:37:56 10° NNW 01:39:47 22° WNW 01:39:47 22° WNW
Cosmos 1733 3.7 01:42:54 45° WNW 01:42:54 45° WNW 01:46:25 10° N
Cosmos 1892 Rocket 3.5 01:40:20 10° N 01:44:49 83° W 01:46:08 46° S
Cosmos 2279 Rocket 4.3 01:44:46 37° SW 01:46:49 51° WNW 01:52:51 10° N
USA 215 3.3 01:41:26 10° NE 01:47:58 77° NW 01:51:29 30° WSW
Cosmos 1461 3.0 01:47:03 52° S 01:48:01 75° ESE 01:52:33 10° NE
COBE Rocket 3.9 01:47:33 47° SW 01:48:20 53° W 01:52:53 10° NNW
Cosmos 2082 3.8 01:53:29 36° SW 01:55:38 61° WNW 02:01:13 10° NNE
Cosmos 1340 Rocket 2.9 01:54:19 39° S 01:55:40 69° E 01:59:38 10° NNE
SL-4 R/B 1.8 01:58:20 10° NW 02:01:46 68° NNE 02:05:08 10° ESE
Cosmos 2112 Rocket 3.9 01:56:48 10° NNW 02:02:02 75° WSW 02:06:35 13° SSE
Cosmos 1953 3.6 01:59:20 16° SSE 02:02:05 38° E 02:05:51 10° NNE
Cosmos 1726 3.0 02:04:08 22° SSE 02:06:11 46° E 02:09:44 10° NNE
Meteor 1-24 Rocket 3.9 02:01:32 10° NNW 02:06:46 47° W 02:08:55 30° SW
SL-16 R/B 2.3 02:02:41 10° NW 02:08:12 53° WSW 02:12:33 16° S
Cosmos 1937 Rocket 3.5 02:06:56 28° SSW 02:09:50 85° ESE 02:15:12 10° NNE
Meteor 2-5 Rocket 4.4 02:05:22 10° NNW 02:10:22 34° W 02:11:59 28° WSW
NOSS 2-3 (E) 4.2 02:10:32 26° S 02:12:38 49° ESE 02:17:15 10° NE
H-2A R/B 3.2 02:09:06 10° SE 02:12:59 41° ENE 02:16:52 10° N
Cosmos 1898 Rocket 3.6 02:11:41 30° SW 02:14:13 65° WNW 02:19:26 10° NNE
SL-16 R/B 3.8 02:13:42 20° WSW 02:14:29 21° W 02:19:01 10° NW
ARIANE 5 R/B 2.5 02:09:32 10° NNE 02:14:47 81° WNW 02:18:02 24° SSW
CZ-2D R/B 3.8 02:13:17 10° NNW 02:17:10 20° WNW 02:19:24 16° W
IDEFIX/ARIANE 42P 2.7 02:12:30 10° NNE 02:17:42 71° ESE 02:21:55 16° S
USA 267 3.3 02:12:54 10° SE 02:19:26 83° NE 02:26:01 10° NW
Cosmos 1680 Rocket 3.8 02:14:46 10° NNW 02:19:44 44° WSW 02:22:58 20° SSW
NOSS 3-1 (C) 3.2 02:17:24 27° SW 02:20:31 81° NW 02:26:51 10° NE
Cosmos 1544 Rocket 3.7 02:20:01 29° SSW 02:22:09 60° W 02:26:36 10° N
CZ-4C R/B 3.7 02:22:34 10° SSE 02:25:39 48° ENE 02:28:50 10° N
ADEOS II 2.9 02:21:01 10° N 02:25:47 36° WNW 02:28:23 22° WSW
Cosmos 990 Rocket 4.4 02:23:20 26° SW 02:25:58 47° WNW 02:31:00 10° N
Timation 1 Rocket 4.3 02:22:56 22° SSW 02:26:55 85° WNW 02:32:56 10° NNE
Cosmos 1607 4.2 02:21:00 10° NW 02:27:07 46° WSW 02:33:13 10° S
Cosmos 2263 Rocket 2.5 02:23:53 16° S 02:28:19 64° ESE 02:33:50 10° NNE
Cosmos 2297 Rocket 4.0 02:27:24 12° W 02:30:43 19° NW 02:34:42 10° N
Cosmos 372 Rocket 4.3 02:28:14 13° S 02:32:44 64° ESE 02:37:55 10° NNE
Okean 1-7 Rocket 4.4 02:29:17 10° NNW 02:33:14 33° W 02:35:04 23° SW
Meteor 2-10 4.1 02:29:20 16° SSW 02:33:48 83° W 02:39:27 10° N
NOSS 2-3 (D) 3.7 02:33:38 22° SSW 02:36:21 75° SE 02:41:11 10° NE
Meteor 1-28 Rocket 3.9 02:36:22 25° SW 02:37:47 33° W 02:41:15 10° NNW
Cosmos 1626 4.0 02:37:02 10° NW 02:38:56 14° W 02:38:56 14° W
Cosmos 1602 Rocket 3.4 02:38:23 10° N 02:42:46 77° W 02:47:05 10° S
Cosmos 1470 4.0 02:41:43 21° WSW 02:43:15 26° WNW 02:46:39 10° NNW
CZ-2C R/B 3.5 02:41:34 10° NNE 02:45:53 39° E 02:50:12 10° SSE
SL-08 R/B 4.2 02:43:56 16° SSW 02:47:04 32° W 02:51:30 10° NNW
Cosmos 1603 3.7 02:42:04 10° NNW 02:47:51 90° E 02:53:33 10° SSE
Meteor 2-21 Rocket 4.4 02:42:54 10° N 02:48:58 79° W 02:55:02 10° S
Meteor 2-16 Rocket 4.5 02:46:11 10° N 02:52:23 88° W 02:58:32 10° S
USA 229 DEB 3.8 02:48:34 16° SW 02:53:48 61° NW 03:00:38 10° NNE
USA 229 3.8 02:48:39 16° SW 02:53:53 62° NW 03:00:42 10° NNE
Cosmos 2298 Rocket 4.1 02:57:35 10° SSW 03:02:54 85° ESE 03:08:15 10° NNE
NOSS 2-3 (C) 3.9 03:01:07 14° SW 03:04:39 60° NW 03:09:36 10° NNE
SJ 16-02 3.5 03:02:53 10° W 03:04:48 12° NW 03:06:41 10° NNW
NOSS 3-1 (A) 3.4 03:00:07 14° SW 03:04:53 66° NW 03:11:14 10° NNE
ERBS 3.8 03:03:35 12° W 03:05:01 15° SW 03:07:03 10° SSW
MSX 4.0 03:08:00 10° N 03:13:38 57° WNW 03:19:16 10° SSW
PSLV R/B 3.6 03:10:18 10° NNE 03:14:43 85° WNW 03:19:04 10° SSW
Cosmos 1943 3.2 03:09:28 10° NNW 03:15:03 66° WSW 03:20:36 10° SSE
Cosmos 2227 Rocket 4.4 03:19:23 10° NW 03:20:36 11° NW 03:21:49 10° NNW
PAYLOAD A 4.1 03:15:41 10° N 03:21:05 79° WNW 03:26:18 10° SSW
deb Chang Zheng 4 3.9 03:17:13 10° NNE 03:21:35 73° ESE 03:25:55 10° S
SeaSat 1 2.7 03:17:11 10° NNE 03:22:03 59° WNW 03:26:53 10° SW
Landsat 5 4.1 03:19:50 10° SSW 03:23:20 32° W 03:26:57 10° NNW
CZ-2C R/B 3.9 03:23:00 10° N 03:26:18 27° WNW 03:29:30 10° SW
Cosmos 2058 Rocket 3.9 03:23:27 10° S 03:27:50 56° E 03:32:14 10° NNE
USA 215 4.4 03:24:39 10° NE 03:30:25 35° NNW 03:36:11 10° W
Meteor 1-11 4.3 03:25:49 10° NNW 03:31:37 79° W 03:37:18 10° S
Cosmos 1048 Rocket 3.9 03:26:33 10° NNW 03:31:41 75° WSW 03:36:50 10° SSE
Cosmos 1356 Rocket 3.5 03:28:02 10° S 03:32:15 84° E 03:36:27 10° NNE
FALCON 9 DEB 3.6 03:29:04 10° WNW 03:32:21 41° SW 03:35:37 10° SSE
ATLAS CENTAUR R/B 2.0 03:28:15 10° SSW 03:32:23 55° ESE 03:36:18 10° NE
Cosmos 1758 Rocket 3.9 03:29:30 10° NNW 03:33:36 43° W 03:37:40 10° SSW
ERS-2 3.2 03:31:35 10° SSW 03:34:37 25° W 03:37:41 10° NW
ATLAS 3B CENTAUR R/B 4.1 03:29:26 10° WSW 03:34:46 17° SSW 03:38:17 10° S
Cosmos 2228 3.2 03:32:02 10° SSW 03:36:19 57° W 03:40:39 10° N
